Regional Weather Roundup
Issued by NWS State College, PA

Home | Current Version | Previous Version | Graphics & Text | Print | Product List | Glossary On
Versions: 1 2 3 4 5 6 7 8 9 10 11 12 13 14 15 16 17 18 19 20 21 22 23 24 25 26 27 28 29 30 31 32 33 34 35 36 37 38 39 40 41 42 43 44 45 46 47 48 49 50
000
ASUS41 KCTP 041503
RWRCTP

REGIONAL WEATHER ROUNDUP
NATIONAL WEATHER SERVICE STATE COLLEGE PA
1100 AM EDT FRI SEP 04 2015

Note: "fair" indicates few or no clouds below 12,000 feet with no
significant weather and/or obstructions to visibility.

* = STATION THAT DOES NOT REPORT PRECIPITATION /E.G. RAIN...SNOW...ETC/
    THUNDER OR FOG.

PAZ002>004-007>009-013>016-020>023-029>032-041600-
WESTERN PENNSYLVANIA

CITY           SKY/WX    TMP DP  RH WIND       PRES   REMARKS
ERIE           MOSUNNY   78  67  68 S5        30.07S
MEADVILLE      MOSUNNY   77  62  59 VRB3      30.10F
FRANKLIN*      PTSUNNY   73  68  83 CALM      30.13S
NEW CASTLE     FAIR      79  67  66 CALM      30.10S
BEAVER COUNTY  MOSUNNY   75  63  64 W3        30.11F
BUTLER*        MOSUNNY   79  66  65 W7        30.13S
PITTSBURGH INT PTSUNNY   78  61  55 NW13      30.11S
PITTSBURGH     MOSUNNY   78  63  59 VRB7      30.11R
INDIANA*       SUNNY     77  68  73 CALM      30.14S
LATROBE        MOSUNNY   77  70  78 CALM      30.12R
WASHINGTON CO* MOSUNNY   79  63  57 NW6       30.12S
$$

PAZ004>006-010>012-017>019-024>028-033>037-041-042-045-046-049>053-041600-
CENTRAL PENNSYLVANIA

CITY           SKY/WX    TMP DP  RH WIND       PRES   REMARKS
BRADFORD       NOT AVBL
DUBOIS         SUNNY     78  65  63 S7        30.12  HAZE
CLEARFIELD     SUNNY     76  66  71 CALM      30.13S
JOHNSTOWN      MOSUNNY   76  66  71 CALM      30.15S
ALTOONA        SUNNY     80  66  62 VRB5      30.12S
STATE COLLEGE  MOSUNNY   73  68  83 NE7       30.12R
WILLIAMSPORT   MOSUNNY   78  68  71 VRB5      30.08S
SELINSGROVE    SUNNY     82  70  66 NE5       30.08R
FT INDIANTOWN  SUNNY     82  69  63 VRB6      30.06R
CAPITAL CITY   SUNNY     84  68  58 E8        30.05R
HARRISBURG     SUNNY     85  67  54 E6        30.04S
YORK           SUNNY     82  70  66 N7        30.05R
$$

PAZ038>040-043-044-047-048-054-055-060>062-067>071-041600-
EASTERN PENNSYLVANIA

CITY           SKY/WX    TMP DP  RH WIND       PRES   REMARKS
SCRANTON       PTSUNNY   81  67  62 E5        30.10R
MOUNT POCONO   PTSUNNY   75  66  73 E9        30.15R
ALLENTOWN      SUNNY     82  68  62 NE8       30.07R
QUAKERTOWN*    MOSUNNY   82  70  65 CALM      30.07S
READING        MOSUNNY   82  69  64 N6        30.04S
LANCASTER      SUNNY     83  69  62 E7        30.05R
COATESVILLE    SUNNY     81  70  69 NE3       30.07R
POTTSTOWN      MOSUNNY   82  70  66 NE5       30.06S
BLUE BELL      SUNNY     84  72  65 NE5       30.04S
DOYLESTOWN     SUNNY     82  69  64 VRB5      30.05R
WILLOW GROVE   NOT AVBL
NORTH PHILA    SUNNY     86  67  52 E8        30.05R
PHILADELPHIA   MOSUNNY   87  68  52 E9        30.03R
$$



USA.gov is the U.S. government's official web portal to all federal, state and local government web resources and services.